SCP
0 0 0 0 0 0 0 0 0 0 0 0 0 0 0 0 0 0 0 0 0 0 0 0 1 0 0 0 0 0 0 0 0 0 0 0 0 0 0 0 0 0 0 -0
0 0 0 0 0 0 0 0 0 0 0 0 0 0 0 0 0 0 0 0 0 0 0 0 0 0 0 0 0 0 0 0 0 0 0 0 0 0 0 0 0 0 -0 -0
0 0 0 0 0 0 0 0 0 0 0 0 0 0 0 0 0 0 0 0 0 0 0 0 0 0 0 0 0 0 0 0 0 0 0 0 0 0 0 0 -0 0 0 0
0 0 0 0 0 0 0 0 0 0 0 0 0 0 0 0 0 0 0 0 0 0 0 0 0 0 0 0 0 0 0 0 0 0 0 0 0 0 0 0 0 0 0 0
0 0 0 0 0 0 0 0 0 0 0 0 0 0 1 0 0 0 0 0 0 0 0 0 0 0 0 0 0 0 0 0 0 0 0 0 0 0 0 0 0 0 0 0
0 0 0 0 0 0 0 0 0 0 0 0 0 0 0 0 0 0 0 0 0 0 0 0 0 0 0 0 0 0 0 0 0 0 0 0 0 0 0 0 0 0 0 -0
0 0 0 0 0 0 0 0 0 0 0 0 0 0 0 0 0 0 0 0 0 0 0 0 0 0 0 0 0 0 0 0 0 0 0 0 0 0 0 0 0 0 0 -0
0 0 0 0 0 0 1 0 0 0 0 0 0 0 0 0 0 0 0 0 0 0 0 0 0 0 0 0 0 0 0 0 0 0 0 0 0 0 0 0 0 0 0 0
0 0 0 0 0 0 0 0 0 0 0 0 0 0 0 0 0 0 0 0 0 0 0 0 0 0 0 0 0 0 0 0 0 0 0 0 0 0 0 0 0 0 0 0
0 0 0 0 0 0 0 0 0 0 0 0 0 0 0 0 0 0 0 0 0 0 0 0 0 0 0 0 0 0 0 0 0 0 0 0 0 0 0 -0 0 0 0 0
0 0 -0 0 0 0 0 0 0 0 0 0 0 0 0 0 0 0 0 0 0 0 0 0 0 0 0 0 0 0 0 0 0 0 0 0 0 0 0 -0 -0 0 0 0
0 0 0 0 0 0 0 0 0 0 0 0 0 0 0 0 0 0 0 0 0 0 0 0 0 0 0 0 0 0 0 0 0 0 0 0 0 0 0 0 0 0 0 0
0 0 0 0 0 0 0 0 0 0 0 0 0 0 0 0 0 0 0 0 0 0 0 0 0 0 0 0 0 0 0 0 0 0 0 0 0 0 0 0 0 0 0 0
0 0 0 0 0 0 0 0 0 0 0 0 0 0 0 0 0 0 0 0 0 0 0 0 0 0 0 0 0 0 0 0 0 0 0 0 0 0 0 0 0 0 0 0
0 0 0 0 0 0 0 0 0 0 0 0 0 0 0 0 0 0 0 0 0 0 0 0 0 0 0 0 0 0 0 0 0 0 0 0 0 0 0 0 0 0 0 0
0 0 0 0 0 0 0 0 0 0 0 0 0 0 0 0 0 0 0 0 0 0 0 0 0 0 0 0 0 0 0 0 0 0 0 0 0 0 0 0 0 0 0 0
0 0 0 0 0 0 0 0 0 0 0 0 0 0 0 0 0 0 0 0 0 0 0 0 0 0 0 0 0 0 0 0 0 0 0 0 0 -0 0 0 0 0 -0 -0
0 0 0 0 0 0 0 0 0 0 0 0 0 0 0 0 0 0 0 0 0 0 0 0 0 0 0 0 0 0 0 0 0 -0 0 0 0 0 0 0 0 0 -0 0
0 0 0 0 0 0 0 0 0 0 0 0 0 0 0 0 0 0 0 0 0 0 0 0 0 0 0 0 0 0 0 0 0 0 0 0 0 0 0 0 0 0 0 -0
0 0 0 0 0 0 0 0 0 0 0 0 0 0 0 0 0 0 0 0 0 0 0 0 0 0 0 0 0 0 0 0 0 0 0 -0 -0 -0 -0 0 0 -0 0 0
0 0 0 0 0 0 0 0 0 0 0 0 0 0 0 0 0 0 0 0 0 0 0 0 0 0 0 0 0 0 0 0 0 -0 -0 -0 -0 -0 0 0 0 -0 -0 -0
0 0 0 0 0 0 0 0 0 0 0 0 0 0 0 0 0 0 0 0 0 0 0 0 0 0 0 0 0 0 0 0 0 0 0 0 0 -0 0 0 0 0 -0 -0
0 0 0 0 0 0 0 0 0 0 0 0 0 0 0 0 0 0 0 0 0 0 0 0 0 0 0 0 0 0 0 0 0 0 0 0 0 0 0 0 0 0 0 0
0 0 0 0 0 0 0 0 0 0 0 0 0 0 0 0 0 0 0 0 0 0 0 0 0 0 0 0 0 0 0 0 0 0 0 0 0 0 0 0 0 0 0 0
0 0 0 0 0 0 0 0 0 0 0 0 0 0 0 0 0 0 0 0 0 0 0 0 0 0 0 0 0 0 0 0 0 0 0 0 0 0 0 0 0 0 0 0
0 0 0 0 0 0 0 0 0 0 0 0 0 0 0 0 0 0 0 0 0 0 0 0 0 0 0 0 0 0 0 0 0 0 0 0 0 0 0 0 0 0 0 0
0 0 0 0 0 0 0 0 0 0 0 0 0 0 0 0 0 0 0 0 0 0 0 0 0 0 0 0 0 0 0 0 0 0 0 0 0 0 0 0 0 0 0 0
Wind_Speed_500mb
13 16 16 17 24 15 21 24 21 23 29 26 18 17 14 18 22 25 33 33 31 34 37 40 39 40 41 32 25 20 19 27 31 33 35 34 45 43 42 42 36 28 25 16
20 12 16 20 25 26 17 12 22 21 25 14 34 15 24 22 20 28 32 32 34 35 37 40 41 44 40 29 17 19 23 29 31 33 29 41 42 39 37 33 25 23 19 14
25 6 16 24 15 16 17 18 29 30 26 22 18 17 19 16 26 29 28 28 31 36 42 45 42 40 30 19 18 23 26 28 30 30 33 38 35 34 36 31 21 18 18 15
15 16 26 12 8 8 12 15 21 26 18 16 14 11 25 36 42 24 25 30 37 43 46 40 38 30 20 17 20 24 26 27 28 32 33 31 30 33 35 28 20 19 20 22
9 19 25 15 16 2 10 23 27 14 20 17 12 3 26 24 9 18 26 33 39 43 41 34 31 23 17 18 21 23 25 25 28 32 27 29 27 33 30 24 23 22 21 23
17 24 26 19 12 9 16 17 22 16 14 19 21 12 5 8 15 23 31 37 42 41 37 31 25 18 16 19 21 23 24 24 27 27 29 26 23 23 21 24 22 19 23 26
19 19 12 19 15 14 13 8 11 11 10 11 14 16 10 14 21 27 35 39 40 37 35 28 19 14 15 19 21 22 20 21 24 24 29 23 25 20 23 22 22 25 24 26
14 13 22 25 12 12 9 4 7 5 8 8 8 6 9 17 24 31 36 39 38 38 33 23 16 15 17 19 20 18 19 19 20 24 22 20 20 17 19 20 20 22 22 25
12 12 10 10 13 6 7 9 2 3 3 3 3 9 15 21 27 30 34 36 36 35 27 18 13 17 17 18 20 20 17 18 19 22 18 20 19 19 18 16 17 20 21 23
14 13 16 6 17 8 8 6 2 6 4 1 6 11 19 26 27 30 33 33 35 31 22 13 12 16 17 18 18 19 19 19 17 16 15 20 19 19 18 17 15 16 19 21
14 27 26 19 11 7 9 5 6 6 6 2 7 15 22 26 27 29 31 31 32 27 18 11 13 15 16 17 20 18 18 18 19 15 12 14 17 21 17 16 12 13 17 20
15 16 13 14 3 6 7 9 10 10 5 2 10 17 22 25 28 28 30 29 29 22 14 10 13 15 15 16 16 15 18 14 21 14 18 10 12 12 20 21 20 16 14 14
25 18 14 18 16 16 17 12 11 10 3 2 9 16 22 27 28 28 25 25 25 18 9 11 13 13 13 14 14 14 19 15 18 15 13 10 12 9 6 12 16 18 15 13
21 18 23 25 23 17 16 16 17 9 6 2 9 17 23 26 25 24 24 24 22 13 9 11 13 11 11 13 12 12 9 20 20 19 12 11 10 9 6 10 6 9 12 12
21 24 25 12 16 15 21 22 16 12 7 2 11 18 21 23 23 23 23 23 19 11 10 10 13 11 9 11 10 15 10 9 13 18 17 12 12 9 9 9 7 7 8 13
14 22 24 25 20 25 26 22 18 14 6 3 10 15 19 20 21 20 21 22 17 13 8 8 10 10 9 12 13 9 8 11 13 9 10 13 15 14 11 13 8 3 5 11
15 21 28 27 27 31 28 22 19 15 8 5 8 12 16 18 19 21 21 20 13 8 4 5 6 8 8 7 12 6 5 1 8 8 6 7 11 11 6 5 7 5 8 5
22 22 24 31 33 31 28 22 21 17 12 8 7 10 14 18 21 22 21 18 9 5 5 8 5 6 8 5 13 6 7 6 5 3 6 10 11 11 10 7 3 6 6 8
31 26 24 26 31 31 29 27 23 20 14 9 6 7 12 17 21 22 19 17 13 13 14 17 11 7 6 14 8 4 6 12 5 6 6 9 8 13 13 9 6 5 7 8
24 24 22 26 27 30 33 31 26 21 15 10 5 5 10 16 20 22 20 12 12 14 12 17 8 9 3 15 6 2 7 9 7 10 9 8 7 11 8 6 1 6 9 8
21 19 20 24 27 32 33 31 28 22 16 10 5 2 9 14 18 20 14 10 15 21 16 19 12 8 16 11 3 9 15 9 11 10 10 10 11 9 9 9 3 5 8 12
22 22 24 27 30 31 30 29 25 21 15 11 6 3 10 14 16 18 13 10 17 19 15 19 13 21 18 9 4 10 11 10 12 11 11 10 13 8 9 8 5 6 9 8
16 19 24 29 31 30 28 26 23 18 14 12 10 9 10 12 15 16 13 19 12 18 11 12 19 17 15 5 2 14 13 11 8 12 14 11 9 9 8 7 8 8 13 14
15 18 22 25 28 29 29 25 19 17 14 14 11 9 10 12 13 13 18 17 18 18 18 19 17 15 8 6 6 13 11 13 8 10 14 16 11 13 15 9 8 6 7 13
14 18 22 26 28 29 25 23 20 18 18 16 15 12 13 13 14 17 22 19 17 14 16 18 17 14 11 11 5 11 10 12 14 8 14 10 17 9 8 13 9 6 7 8
11 16 21 26 25 27 23 22 22 16 15 25 20 18 18 18 22 25 11 14 16 16 14 11 7 13 13 10 8 13 10 12 15 13 16 12 15 18 14 12 14 10 10 8
11 18 22 23 24 25 22 25 26 24 22 24 26 23 21 19 18 18 17 16 11 14 13 20 19 13 10 7 12 14 13 12 17 16 15 20 21 21 20 18 22 21 17 5
Wind_Direction_500mb
299 329 298 313 302 320 316 324 316 325 318 359 19 350 5 10 353 359 13 5 353 352 346 335 338 335 335 334 337 336 339 333 332 333 335 317 324 324 324 321 318 332 336 342
292 221 281 295 298 284 267 313 311 317 307 96 316 360 21 353 355 11 6 0 352 345 343 339 335 335 337 338 350 358 347 342 342 343 339 336 339 343 341 331 336 336 347 11
277 117 304 280 311 359 332 329 343 319 336 329 358 13 352 15 22 14 5 355 350 344 340 335 334 335 337 348 355 355 352 352 351 347 354 353 352 355 359 4 16 34 31 23
270 275 278 65 238 336 334 286 305 317 342 359 4 355 43 32 22 7 7 352 346 340 336 337 336 336 338 349 353 353 355 359 352 4 4 1 6 17 21 27 45 40 35 55
268 273 302 347 39 215 318 320 312 353 3 347 338 305 54 30 356 7 356 350 344 339 339 341 338 340 346 354 352 356 3 358 9 5 4 11 12 16 21 44 49 44 42 45
284 291 288 42 145 11 324 303 31 6 20 6 327 59 191 22 3 356 353 348 345 344 343 342 343 350 356 356 356 6 0 10 12 6 15 9 11 12 25 32 42 47 50 56
271 291 289 50 39 353 304 29 17 9 20 8 31 42 36 1 353 349 345 346 345 346 346 343 346 359 5 360 5 4 0 18 12 20 34 17 33 42 28 37 47 53 54 53
264 300 290 25 341 352 39 317 311 22 18 67 77 42 5 349 343 344 344 346 347 346 347 347 358 3 6 4 8 350 13 18 13 23 27 18 18 21 31 45 43 50 56 61
350 326 352 313 326 325 276 275 310 339 81 85 23 7 347 338 341 342 345 346 348 349 350 354 12 14 9 6 7 352 16 17 9 20 17 29 17 26 35 49 55 46 52 57
271 258 307 333 297 268 240 262 186 143 162 101 8 340 341 341 342 341 344 346 347 348 353 358 9 6 11 10 346 3 25 14 13 16 31 31 22 22 30 27 51 50 46 51
272 265 263 259 236 299 194 203 193 182 163 107 351 345 345 343 343 339 339 341 345 346 352 1 358 3 8 10 340 6 27 18 4 1 22 4 26 44 55 48 60 64 69 39
284 347 319 308 238 215 236 231 215 188 185 23 355 349 345 343 340 336 335 336 341 343 344 347 350 355 3 1 2 18 20 17 15 21 7 14 13 54 59 57 56 49 58 81
277 303 283 271 278 267 263 222 197 198 198 310 346 349 347 342 338 338 334 335 338 337 338 341 347 354 1 352 16 25 22 7 26 21 23 26 26 61 78 56 47 30 45 69
263 255 259 256 252 236 228 179 173 177 172 64 4 353 348 345 341 340 340 338 335 329 328 333 343 342 359 341 12 29 354 28 35 17 33 46 34 60 19 23 40 34 49 73
245 241 242 250 222 203 185 177 179 190 191 352 360 357 351 347 343 338 336 336 331 324 312 323 335 335 348 333 351 16 17 21 66 42 49 62 38 44 38 44 78 110 53 72
231 227 221 223 212 195 193 198 208 195 188 41 18 9 359 350 346 343 337 333 326 320 298 312 325 330 346 319 340 10 9 100 83 51 57 56 56 56 52 12 38 43 110 123
235 224 220 224 219 206 207 213 211 188 172 95 37 18 3 353 348 343 341 333 324 299 275 293 300 321 340 327 326 342 347 23 94 39 24 6 360 348 26 41 10 67 94 154
240 245 238 231 226 206 207 196 183 174 155 116 63 22 7 1 351 343 340 328 317 270 264 281 275 312 327 341 301 312 334 253 252 289 333 6 343 357 356 337 16 135 121 139
234 234 232 217 213 203 195 190 180 167 146 124 91 28 11 358 349 341 334 322 299 286 263 299 295 322 318 286 246 302 318 315 244 263 275 321 349 339 4 19 118 141 161 172
211 212 217 209 201 193 187 184 175 162 156 142 111 33 5 355 347 339 323 301 287 277 251 276 302 267 264 298 239 333 287 310 285 233 248 277 305 313 343 334 117 151 174 180
196 199 201 197 189 186 186 182 174 169 166 160 151 19 353 346 347 342 330 313 275 261 271 273 274 273 276 291 281 257 312 301 303 265 249 248 247 280 318 325 327 173 209 196
213 217 219 205 193 190 187 182 179 177 179 189 206 288 329 332 337 342 333 278 278 283 282 282 269 270 273 278 261 268 279 282 296 280 252 266 241 253 284 305 274 182 201 173
212 213 210 197 194 192 188 187 188 187 196 212 237 271 310 325 327 319 333 310 293 282 268 253 263 267 280 296 159 281 274 248 286 291 251 249 262 266 274 273 283 262 184 191
200 188 190 191 191 192 194 198 203 210 210 221 239 263 304 315 324 310 314 301 288 285 260 267 266 269 253 188 300 268 260 245 261 294 299 235 247 283 266 254 271 251 233 224
194 187 185 190 195 199 207 210 210 211 218 232 243 271 305 299 314 296 291 290 296 282 271 268 269 274 226 206 262 272 259 248 237 270 296 270 246 244 276 269 279 294 275 272
188 201 202 205 214 211 216 215 220 235 246 274 266 270 281 290 297 325 309 267 284 277 271 266 274 266 231 223 263 271 269 267 259 264 283 290 290 254 237 254 264 276 270 293
240 230 219 220 224 223 227 242 247 257 263 263 255 261 272 278 281 289 277 262 256 247 236 228 250 211 212 268 275 256 258 263 271 270 271 276 288 278 256 252 240 239 246 253
Wind_Speed_850mb
13 16 16 17 24 15 21 24 21 23 29 26 18 17 14 18 22 25 33 33 31 34 37 40 39 40 41 32 25 20 19 27 31 33 35 34 45 43 42 42 36 28 25 16
20 12 16 20 25 26 17 12 22 21 25 14 34 15 24 22 20 28 32 32 34 35 37 40 41 44 40 29 17 19 23 29 31 33 29 41 42 39 37 33 25 23 19 14
25 6 16 24 15 16 17 18 29 30 26 22 18 17 19 16 26 29 28 28 31 36 42 45 42 40 30 19 18 23 26 28 30 30 33 38 35 34 36 31 21 18 18 15
15 16 26 12 8 8 12 15 21 26 18 16 14 11 25 36 42 24 25 30 37 43 46 40 38 30 20 17 20 24 26 27 28 32 33 31 30 33 35 28 20 19 20 22
9 19 25 15 16 2 10 23 27 14 20 17 12 3 26 24 9 18 26 33 39 43 41 34 31 23 17 18 21 23 25 25 28 32 27 29 27 33 30 24 23 22 21 23
17 24 26 19 12 9 16 17 22 16 14 19 21 12 5 8 15 23 31 37 42 41 37 31 25 18 16 19 21 23 24 24 27 27 29 26 23 23 21 24 22 19 23 26
19 19 12 19 15 14 13 8 11 11 10 11 14 16 10 14 21 27 35 39 40 37 35 28 19 14 15 19 21 22 20 21 24 24 29 23 25 20 23 22 22 25 24 26
14 13 22 25 12 12 9 4 7 5 8 8 8 6 9 17 24 31 36 39 38 38 33 23 16 15 17 19 20 18 19 19 20 24 22 20 20 17 19 20 20 22 22 25
12 12 10 10 13 6 7 9 2 3 3 3 3 9 15 21 27 30 34 36 36 35 27 18 13 17 17 18 20 20 17 18 19 22 18 20 19 19 18 16 17 20 21 23
14 13 16 6 17 8 8 6 2 6 4 1 6 11 19 26 27 30 33 33 35 31 22 13 12 16 17 18 18 19 19 19 17 16 15 20 19 19 18 17 15 16 19 21
14 27 26 19 11 7 9 5 6 6 6 2 7 15 22 26 27 29 31 31 32 27 18 11 13 15 16 17 20 18 18 18 19 15 12 14 17 21 17 16 12 13 17 20
15 16 13 14 3 6 7 9 10 10 5 2 10 17 22 25 28 28 30 29 29 22 14 10 13 15 15 16 16 15 18 14 21 14 18 10 12 12 20 21 20 16 14 14
25 18 14 18 16 16 17 12 11 10 3 2 9 16 22 27 28 28 25 25 25 18 9 11 13 13 13 14 14 14 19 15 18 15 13 10 12 9 6 12 16 18 15 13
21 18 23 25 23 17 16 16 17 9 6 2 9 17 23 26 25 24 24 24 22 13 9 11 13 11 11 13 12 12 9 20 20 19 12 11 10 9 6 10 6 9 12 12
21 24 25 12 16 15 21 22 16 12 7 2 11 18 21 23 23 23 23 23 19 11 10 10 13 11 9 11 10 15 10 9 13 18 17 12 12 9 9 9 7 7 8 13
14 22 24 25 20 25 26 22 18 14 6 3 10 15 19 20 21 20 21 22 17 13 8 8 10 10 9 12 13 9 8 11 13 9 10 13 15 14 11 13 8 3 5 11
15 21 28 27 27 31 28 22 19 15 8 5 8 12 16 18 19 21 21 20 13 8 4 5 6 8 8 7 12 6 5 1 8 8 6 7 11 11 6 5 7 5 8 5
22 22 24 31 33 31 28 22 21 17 12 8 7 10 14 18 21 22 21 18 9 5 5 8 5 6 8 5 13 6 7 6 5 3 6 10 11 11 10 7 3 6 6 8
31 26 24 26 31 31 29 27 23 20 14 9 6 7 12 17 21 22 19 17 13 13 14 17 11 7 6 14 8 4 6 12 5 6 6 9 8 13 13 9 6 5 7 8
24 24 22 26 27 30 33 31 26 21 15 10 5 5 10 16 20 22 20 12 12 14 12 17 8 9 3 15 6 2 7 9 7 10 9 8 7 11 8 6 1 6 9 8
21 19 20 24 27 32 33 31 28 22 16 10 5 2 9 14 18 20 14 10 15 21 16 19 12 8 16 11 3 9 15 9 11 10 10 10 11 9 9 9 3 5 8 12
22 22 24 27 30 31 30 29 25 21 15 11 6 3 10 14 16 18 13 10 17 19 15 19 13 21 18 9 4 10 11 10 12 11 11 10 13 8 9 8 5 6 9 8
16 19 24 29 31 30 28 26 23 18 14 12 10 9 10 12 15 16 13 19 12 18 11 12 19 17 15 5 2 14 13 11 8 12 14 11 9 9 8 7 8 8 13 14
15 18 22 25 28 29 29 25 19 17 14 14 11 9 10 12 13 13 18 17 18 18 18 19 17 15 8 6 6 13 11 13 8 10 14 16 11 13 15 9 8 6 7 13
14 18 22 26 28 29 25 23 20 18 18 16 15 12 13 13 14 17 22 19 17 14 16 18 17 14 11 11 5 11 10 12 14 8 14 10 17 9 8 13 9 6 7 8
11 16 21 26 25 27 23 22 22 16 15 25 20 18 18 18 22 25 11 14 16 16 14 11 7 13 13 10 8 13 10 12 15 13 16 12 15 18 14 12 14 10 10 8
11 18 22 23 24 25 22 25 26 24 22 24 26 23 21 19 18 18 17 16 11 14 13 20 19 13 10 7 12 14 13 12 17 16 15 20 21 21 20 18 22 21 17 5
Wind_Direction_850mb
299 329 298 313 302 320 316 324 316 325 318 359 19 350 5 10 353 359 13 5 353 352 346 335 338 335 335 334 337 336 339 333 332 333 335 317 324 324 324 321 318 332 336 342
292 221 281 295 298 284 267 313 311 317 307 96 316 360 21 353 355 11 6 0 352 345 343 339 335 335 337 338 350 358 347 342 342 343 339 336 339 343 341 331 336 336 347 11
277 117 304 280 311 359 332 329 343 319 336 329 358 13 352 15 22 14 5 355 350 344 340 335 334 335 337 348 355 355 352 352 351 347 354 353 352 355 359 4 16 34 31 23
270 275 278 65 238 336 334 286 305 317 342 359 4 355 43 32 22 7 7 352 346 340 336 337 336 336 338 349 353 353 355 359 352 4 4 1 6 17 21 27 45 40 35 55
268 273 302 347 39 215 318 320 312 353 3 347 338 305 54 30 356 7 356 350 344 339 339 341 338 340 346 354 352 356 3 358 9 5 4 11 12 16 21 44 49 44 42 45
284 291 288 42 145 11 324 303 31 6 20 6 327 59 191 22 3 356 353 348 345 344 343 342 343 350 356 356 356 6 0 10 12 6 15 9 11 12 25 32 42 47 50 56
271 291 289 50 39 353 304 29 17 9 20 8 31 42 36 1 353 349 345 346 345 346 346 343 346 359 5 360 5 4 0 18 12 20 34 17 33 42 28 37 47 53 54 53
264 300 290 25 341 352 39 317 311 22 18 67 77 42 5 349 343 344 344 346 347 346 347 347 358 3 6 4 8 350 13 18 13 23 27 18 18 21 31 45 43 50 56 61
350 326 352 313 326 325 276 275 310 339 81 85 23 7 347 338 341 342 345 346 348 349 350 354 12 14 9 6 7 352 16 17 9 20 17 29 17 26 35 49 55 46 52 57
271 258 307 333 297 268 240 262 186 143 162 101 8 340 341 341 342 341 344 346 347 348 353 358 9 6 11 10 346 3 25 14 13 16 31 31 22 22 30 27 51 50 46 51
272 265 263 259 236 299 194 203 193 182 163 107 351 345 345 343 343 339 339 341 345 346 352 1 358 3 8 10 340 6 27 18 4 1 22 4 26 44 55 48 60 64 69 39
284 347 319 308 238 215 236 231 215 188 185 23 355 349 345 343 340 336 335 336 341 343 344 347 350 355 3 1 2 18 20 17 15 21 7 14 13 54 59 57 56 49 58 81
277 303 283 271 278 267 263 222 197 198 198 310 346 349 347 342 338 338 334 335 338 337 338 341 347 354 1 352 16 25 22 7 26 21 23 26 26 61 78 56 47 30 45 69
263 255 259 256 252 236 228 179 173 177 172 64 4 353 348 345 341 340 340 338 335 329 328 333 343 342 359 341 12 29 354 28 35 17 33 46 34 60 19 23 40 34 49 73
245 241 242 250 222 203 185 177 179 190 191 352 360 357 351 347 343 338 336 336 331 324 312 323 335 335 348 333 351 16 17 21 66 42 49 62 38 44 38 44 78 110 53 72
231 227 221 223 212 195 193 198 208 195 188 41 18 9 359 350 346 343 337 333 326 320 298 312 325 330 346 319 340 10 9 100 83 51 57 56 56 56 52 12 38 43 110 123
235 224 220 224 219 206 207 213 211 188 172 95 37 18 3 353 348 343 341 333 324 299 275 293 300 321 340 327 326 342 347 23 94 39 24 6 360 348 26 41 10 67 94 154
240 245 238 231 226 206 207 196 183 174 155 116 63 22 7 1 351 343 340 328 317 270 264 281 275 312 327 341 301 312 334 253 252 289 333 6 343 357 356 337 16 135 121 139
234 234 232 217 213 203 195 190 180 167 146 124 91 28 11 358 349 341 334 322 299 286 263 299 295 322 318 286 246 302 318 315 244 263 275 321 349 339 4 19 118 141 161 172
211 212 217 209 201 193 187 184 175 162 156 142 111 33 5 355 347 339 323 301 287 277 251 276 302 267 264 298 239 333 287 310 285 233 248 277 305 313 343 334 117 151 174 180
196 199 201 197 189 186 186 182 174 169 166 160 151 19 353 346 347 342 330 313 275 261 271 273 274 273 276 291 281 257 312 301 303 265 249 248 247 280 318 325 327 173 209 196
213 217 219 205 193 190 187 182 179 177 179 189 206 288 329 332 337 342 333 278 278 283 282 282 269 270 273 278 261 268 279 282 296 280 252 266 241 253 284 305 274 182 201 173
212 213 210 197 194 192 188 187 188 187 196 212 237 271 310 325 327 319 333 310 293 282 268 253 263 267 280 296 159 281 274 248 286 291 251 249 262 266 274 273 283 262 184 191
200 188 190 191 191 192 194 198 203 210 210 221 239 263 304 315 324 310 314 301 288 285 260 267 266 269 253 188 300 268 260 245 261 294 299 235 247 283 266 254 271 251 233 224
194 187 185 190 195 199 207 210 210 211 218 232 243 271 305 299 314 296 291 290 296 282 271 268 269 274 226 206 262 272 259 248 237 270 296 270 246 244 276 269 279 294 275 272
188 201 202 205 214 211 216 215 220 235 246 274 266 270 281 290 297 325 309 267 284 277 271 266 274 266 231 223 263 271 269 267 259 264 283 290 290 254 237 254 264 276 270 293
240 230 219 220 224 223 227 242 247 257 263 263 255 261 272 278 281 289 277 262 256 247 236 228 250 211 212 268 275 256 258 263 271 270 271 276 288 278 256 252 240 239 246 253